Total_Precipitation_Accumulation
1.75 2.02 2.41 2.83 3.03 3.19 3.29 3.55 3.72 3.39 2.83 2.34 1.80 1.52 1.38 1.17 1.00 0.86 0.75 0.73 0.66 0.70 0.73 0.63 0.67 0.58 0.57 0.58 0.59 0.71 0.74 0.72 0.72 0.96 1.12 0.95 0.75 0.72 0.64 0.65 0.77 0.82 0.87
1.32 1.44 1.66 1.99 2.07 2.28 2.60 2.93 3.10 2.92 2.36 2.08 1.79 1.59 1.45 1.26 1.12 0.96 0.82 0.68 0.63 0.63 0.60 0.69 0.57 0.57 0.62 0.61 0.61 0.70 0.71 0.63 0.64 0.85 1.07 1.02 1.05 0.97 0.52 0.60 0.70 0.76 0.91
0.98 0.99 1.07 1.25 1.55 2.02 2.16 2.17 2.37 2.48 2.22 2.06 1.93 1.74 1.60 1.35 1.21 1.06 0.88 0.64 0.58 0.60 0.59 0.56 0.55 0.65 0.52 0.64 0.74 0.72 0.71 0.69 0.62 0.61 0.78 0.89 0.92 0.86 0.75 0.63 0.62 0.68 0.85
0.64 0.78 0.81 0.88 1.08 1.40 1.66 1.88 2.07 2.19 2.07 1.92 1.70 1.50 1.27 1.07 0.89 0.85 0.86 0.78 0.68 0.61 0.58 0.51 0.57 0.66 0.57 0.75 0.58 0.61 0.69 0.70 0.61 0.56 0.47 0.49 0.61 0.74 0.84 0.76 0.63 0.65 0.71
0.34 0.49 0.61 0.73 0.76 0.95 1.32 1.70 2.01 2.19 1.99 1.68 1.52 1.46 1.31 1.16 1.01 0.92 1.02 0.91 0.81 0.71 0.62 0.59 0.62 0.57 0.53 0.62 0.64 0.77 0.69 0.67 0.63 0.56 0.49 0.49 0.47 0.45 0.57 0.73 0.75 0.72 0.54
0.23 0.33 0.40 0.49 0.62 0.76 0.98 1.22 1.53 1.76 1.74 1.56 1.45 1.39 1.37 1.30 1.17 0.97 0.89 0.83 0.79 0.77 0.72 0.71 0.72 0.65 0.57 0.58 0.59 0.65 0.68 0.75 0.81 0.67 0.54 0.55 0.52 0.45 0.48 0.48 0.50 0.59 0.47
0.18 0.28 0.35 0.33 0.44 0.54 0.63 0.77 1.05 1.25 1.34 1.36 1.34 1.27 1.35 1.35 1.23 1.08 0.94 0.86 0.74 0.70 0.70 0.70 0.76 0.74 0.72 0.68 0.66 0.63 0.64 0.72 0.79 0.70 0.58 0.50 0.41 0.43 0.46 0.48 0.40 0.40 0.36
0.14 0.22 0.30 0.30 0.31 0.37 0.48 0.62 0.81 0.96 1.02 1.07 1.15 1.15 1.13 1.07 1.12 1.17 1.04 0.91 0.82 0.75 0.70 0.71 0.67 0.67 0.70 0.70 0.79 0.65 0.60 0.64 0.65 0.61 0.69 0.61 0.38 0.36 0.43 0.47 0.51 0.54 0.51
0.21 0.21 0.27 0.28 0.23 0.28 0.36 0.43 0.59 0.72 0.80 0.91 1.02 1.01 1.01 0.96 0.98 0.99 0.94 0.87 0.89 0.86 0.79 0.71 0.69 0.71 0.73 0.74 0.79 0.73 0.73 0.72 0.62 0.59 0.68 0.63 0.48 0.38 0.32 0.40 0.52 0.68 0.73
0.27 0.26 0.25 0.31 0.27 0.26 0.32 0.36 0.46 0.58 0.68 0.78 0.85 0.85 0.96 0.95 1.03 1.00 0.90 0.83 0.79 0.76 0.79 0.76 0.69 0.70 0.75 0.81 0.84 0.84 0.90 0.93 0.84 0.72 0.73 0.69 0.59 0.58 0.45 0.42 0.51 0.63 0.74
0.24 0.24 0.20 0.23 0.23 0.23 0.25 0.28 0.39 0.51 0.60 0.71 0.77 0.84 0.86 0.89 0.96 1.00 0.99 0.93 0.86 0.82 0.80 0.79 0.74 0.71 0.74 0.78 0.81 0.81 0.92 1.05 1.12 0.97 0.87 0.82 0.76 0.77 0.67 0.64 0.66 0.66 0.77
0.15 0.18 0.18 0.18 0.17 0.21 0.22 0.23 0.28 0.36 0.45 0.63 0.76 0.80 0.88 0.93 0.92 0.93 1.06 1.07 1.03 0.98 0.96 0.92 0.90 0.83 0.76 0.79 0.78 0.73 0.78 0.95 1.14 1.28 1.30 1.15 1.00 0.97 0.84 0.80 0.78 0.76 0.81
0.18 0.22 0.23 0.24 0.20 0.21 0.23 0.26 0.30 0.35 0.40 0.53 0.66 0.76 0.85 0.94 0.98 1.02 1.11 1.22 1.20 1.17 1.17 1.14 1.08 1.00 0.96 0.93 0.91 0.85 0.83 0.87 0.96 1.12 1.30 1.31 1.30 1.14 1.03 0.94 0.88 0.83 0.78
0.18 0.21 0.32 0.33 0.24 0.21 0.25 0.28 0.34 0.40 0.50 0.66 0.77 0.83 0.98 1.09 1.14 1.11 1.19 1.24 1.30 1.33 1.34 1.32 1.24 1.15 1.10 1.06 1.05 1.04 1.03 1.02 1.01 1.00 1.05 1.14 1.29 1.24 1.15 1.07 1.01 0.97 0.96
0.23 0.27 0.36 0.41 0.38 0.34 0.33 0.36 0.47 0.56 0.73 0.93 0.98 0.99 1.06 1.13 1.21 1.30 1.37 1.46 1.51 1.51 1.59 1.51 1.41 1.34 1.28 1.17 1.23 1.32 1.32 1.32 1.19 1.06 0.98 0.95 1.08 1.17 1.18 1.06 1.01 1.03 1.05
0.31 0.33 0.42 0.51 0.54 0.51 0.51 0.60 0.71 0.87 1.08 1.31 1.38 1.44 1.48 1.49 1.53 1.57 1.60 1.70 1.74 1.72 1.66 1.59 1.56 1.50 1.34 1.40 1.39 1.30 1.31 1.43 1.41 1.28 1.18 1.04 0.97 0.98 1.04 1.10 1.11 1.09 1.07
0.44 0.44 0.53 0.66 0.73 0.71 0.69 0.77 0.88 1.06 1.25 1.35 1.37 1.42 1.50 1.56 1.58 1.60 1.64 1.64 1.66 1.66 1.60 1.61 1.63 1.59 1.57 1.45 1.24 1.10 1.08 1.16 1.23 1.27 1.22 1.02 0.91 0.95 0.95 1.07 1.09 1.03 0.96
0.52 0.57 0.64 0.69 0.72 0.77 0.79 0.87 0.93 0.99 1.17 1.26 1.24 1.23 1.27 1.28 1.32 1.41 1.46 1.47 1.49 1.47 1.43 1.41 1.34 1.30 1.26 1.20 1.03 0.97 0.96 0.98 0.97 1.05 1.13 1.07 0.95 0.90 0.89 0.84 0.78 0.75 0.75
0.56 0.63 0.71 0.69 0.69 0.74 0.79 0.77 0.82 0.86 0.97 1.03 1.05 1.02 1.05 1.10 1.16 1.23 1.32 1.40 1.39 1.28 1.16 1.09 1.08 1.08 1.12 1.18 1.00 0.92 0.91 0.94 0.88 0.88 0.90 0.91 0.83 0.79 0.70 0.67 0.60 0.56 0.56
0.49 0.59 0.71 0.71 0.68 0.69 0.70 0.70 0.73 0.79 0.87 0.97 1.04 1.03 1.02 1.07 1.11 1.18 1.24 1.26 1.24 1.20 1.16 1.10 1.06 1.05 1.05 1.13 0.97 0.89 0.89 0.93 0.89 0.90 0.93 0.99 0.85 0.71 0.55 0.56 0.60 0.53 0.48
0.51 0.55 0.65 0.75 0.74 0.75 0.76 0.79 0.76 0.77 0.82 0.89 0.95 0.97 0.96 0.98 1.02 1.08 1.09 1.15 1.19 1.16 1.11 1.04 1.01 1.04 1.04 1.01 0.85 0.75 0.73 0.78 0.80 0.76 0.77 0.86 0.81 0.64 0.49 0.49 0.53 0.48 0.46
0.38 0.50 0.60 0.68 0.73 0.79 0.85 0.85 0.78 0.77 0.81 0.90 0.93 0.91 0.91 0.90 0.90 0.90 0.90 0.95 0.99 0.97 0.95 0.94 0.94 1.00 0.98 0.84 0.71 0.60 0.57 0.61 0.64 0.74 0.75 0.83 0.84 0.66 0.56 0.48 0.46 0.39 0.34
0.32 0.37 0.46 0.57 0.60 0.70 0.79 0.86 0.85 0.84 0.81 0.85 0.90 0.88 0.88 0.89 0.92 0.93 0.94 0.95 0.94 0.94 0.92 0.87 0.79 0.79 0.81 0.80 0.64 0.50 0.45 0.49 0.57 0.79 0.98 0.99 0.93 0.78 0.64 0.57 0.54 0.43 0.36
0.38 0.41 0.47 0.50 0.51 0.56 0.64 0.74 0.81 0.84 0.85 0.84 0.79 0.75 0.76 0.77 0.81 0.90 0.95 0.97 0.97 0.94 0.88 0.83 0.79 0.78 0.80 0.79 0.73 0.63 0.54 0.55 0.62 0.81 0.99 1.09 1.12 1.03 0.91 0.82 0.73 0.57 0.51
0.46 0.47 0.50 0.49 0.50 0.53 0.57 0.64 0.71 0.74 0.78 0.80 0.78 0.74 0.71 0.71 0.75 0.79 0.83 0.81 0.83 0.82 0.79 0.74 0.74 0.76 0.78 0.77 0.72 0.64 0.59 0.56 0.60 0.73 0.98 1.18 1.31 1.33 1.28 1.14 1.02 0.88 0.77
0.53 0.53 0.54 0.54 0.55 0.58 0.61 0.60 0.65 0.75 0.82 0.83 0.77 0.73 0.69 0.69 0.70 0.71 0.76 0.82 0.74 0.73 0.68 0.66 0.61 0.58 0.62 0.62 0.55 0.50 0.49 0.48 0.53 0.66 0.91 1.15 1.33 1.40 1.49 1.47 1.35 1.16 0.98